Location: De Greiden
(52.9496°N, 5.9137°E)
Time: 23:35:44
(UTC+00:00)

Cosmos 1626 Rocket - Pass Details

Date: 24 January 2021
Orbit: 603 x 631 km, 82.5° (Epoch: 01 March)

Event Time Altitude Azimuth Distance (km) Brightness Sun altitude
Rises 17:16:23 0° 163° (SSE) 2,880 7.0 -10.4°
Reaches altitude 10° 17:18:44 10° 153° (SSE) 1,985 6.1 -10.7°
Maximum altitude 17:22:40 33° 90° (E) 1,064 4.3 -11.3°
Drops below altitude 10° 17:26:39 10° 27° (NNE) 2,014 5.8 -11.9°
Enters shadow 17:28:32 - 19° (NNE) 2,727 6.5 -12.1°
